Terug naar catalogus

FENGYUN 1C DEB

ActiefPO
NORAD 30001·DEBRIS·🇨🇳 China

Gelanceerd May 10, 1999 vanaf Taiyuan Satellite Launch Center

Loading…

Volgende Passages (komende 24 uur)

TLE

VersSource: Space-Track

Epoch: Sep 13, 2026, 17:32 UTC

1 30001U 99025MA  26256.73101263  .00004286  00000-0  13016-2 0  9996
2 30001  98.9529 349.5644 0033805   2.3604 159.3978 14.42368179 13840

Volg FENGYUN 1C DEB in realtime met AllMySat

Download on the App Store